Simultaneous Nadir Overpasses (SNOs) Predictions

Prediction of SNOs between METOP-A and NOAA-19 Satellite Orbit:

Table of predicted SNOs for the next 14.0 days since TLE Epoch: 5/17/2014
Index Date (METOP-A) Time (METOP-A) Lat,Lon (METOP-A) SZA (METOP-A ) Date (NOAA-19) Time (NOAA-19) Lat,Lon (NOAA-19) SZA (NOAA-19 ) Distance(km) Time Diff (sec)
1 05/18/2014 18:09:28 -74.57, 83.50 125.14 05/18/2014 18:08:20 -74.61, 80.80 125.02 79.91 68
2 05/18/2014 19:00:19 74.05,-110.51 54.37 05/18/2014 18:59:16 74.07,-110.54 54.39 2.08 63
3 05/18/2014 19:51:00 -74.07, 56.85 125.63 05/18/2014 19:50:12 -74.05, 56.78 125.64 2.92 48
4 05/18/2014 20:41:41 74.03,-135.90 54.33 05/18/2014 20:41:19 74.04,-135.97 54.34 2.15 22
5 05/18/2014 21:32:23 -74.00, 31.34 125.71 05/18/2014 21:32:15 -74.02, 31.34 125.69 2.38 8
6 05/18/2014 22:23:03 74.01,-161.29 54.30 05/18/2014 22:23:22 74.01,-161.40 54.29 3.49 19
7 05/18/2014 23:13:45 -73.98, 5.95 125.75 05/18/2014 23:14:18 -73.99, 5.91 125.74 1.75 33
8 05/19/2014 00:04:26 73.94, 173.20 54.22 05/19/2014 00:05:24 73.92, 173.29 54.19 3.36 58
9 05/19/2014 00:55:07 -73.96, -19.44 125.78 05/19/2014 00:56:21 -73.96, -19.53 125.79 2.81 74
10 05/28/2014 23:57:15 74.51, 176.42 52.89 05/28/2014 23:56:06 74.53, 174.17 52.98 66.77 69
11 05/29/2014 00:48:05 -74.09, -17.33 127.51 05/29/2014 00:46:52 -74.07, -17.33 127.53 2.23 73
12 05/29/2014 01:38:46 74.05, 149.90 52.45 05/29/2014 01:38:00 74.07, 149.89 52.47 2.17 46
13 05/29/2014 02:29:28 -74.02, -42.84 127.59 05/29/2014 02:28:55 -74.04, -42.77 127.57 3.10 33
14 05/29/2014 03:20:08 74.03, 124.51 52.42 05/29/2014 03:20:03 74.04, 124.46 52.43 1.91 5
15 05/29/2014 04:10:50 -74.00, -68.23 127.62 05/29/2014 04:10:58 -74.01, -68.20 127.61 1.32 8
16 05/29/2014 05:01:30 74.01, 99.12 52.39 05/29/2014 05:02:06 74.01, 99.02 52.38 3.00 36
17 05/29/2014 05:52:12 -73.98, -93.62 127.65 05/29/2014 05:53:01 -73.98, -93.64 127.66 0.57 49
18 05/29/2014 06:42:54 73.89, 73.49 52.26 05/29/2014 06:44:08 73.93, 73.71 52.29 8.09 74
19 05/29/2014 07:33:46 -73.37,-120.41 128.23 05/29/2014 07:34:53 -73.41,-117.77 128.27 83.93 67
